Overview Statistics Trail Chart Weather Telemetry Raw packets
 

This is the latest recevied weather packets stored in our database for station/object KB4MLW-13. If no packets are shown the sender has not sent any weather packets the latest 10 day(s).

<< 43 44 45 46 47 48 49 >>
Time Temp. Humidity Pressure Rain* Wind** Luminosity Snow
1788309928 28.89° C 81% 1000.1 hPa 0 mm - - -
1788309868 28.89° C 81% 999.9 hPa 0 mm - - -
1788309779 29.44° C 81% 1000.2 hPa 0 mm - - -
1788309689 29.44° C 80% 1000.1 hPa 0 mm - - -
1788309628 29.44° C 80% 999.9 hPa 0 mm - - -
1788309568 29.44° C 79% 1000 hPa 0 mm - - -
1788309479 29.44° C 79% 999.9 hPa 0 mm - - -
1788309419 29.44° C 78% 1000 hPa 0 mm - - -
1788309358 29.44° C 80% 1000.3 hPa 0 mm - - -
1788309298 29.44° C 79% 1000.2 hPa 0 mm - - -
1788309238 29.44° C 78% 1000.1 hPa 0 mm - - -
1788309150 29.44° C 79% 1000 hPa 0 mm - - -
1788309088 29.44° C 79% 1000 hPa 0 mm - - -
1788309039 29.44° C 82% 1000.2 hPa 0 mm - - -
1788308938 29.44° C 80% 1000 hPa 0 mm - - -
1788308849 29.44° C 82% 1000 hPa 0 mm - - -
1788308788 29.44° C 81% 1000.1 hPa 0 mm - - -
1788308728 29.44° C 81% 1000.2 hPa 0 mm - - -
1788308638 29.44° C 79% 1000.2 hPa 0 mm - - -
1788308548 29.44° C 78% 1000.3 hPa 0 mm - - -
1788308488 30° C 78% 1000 hPa 0 mm - - -
1788308428 30° C 79% 1000.3 hPa 0 mm - - -
1788308368 30° C 79% 1000.1 hPa 0 mm - - -
1788308278 30° C 78% 1000 hPa 0 mm - - -
1788308218 30° C 78% 1000.2 hPa 0 mm - - -

* Rain latest hour (hover to see other rain measurements)
** Current wind speed in m/s (hover to see current wind gust speed)